Regional Weather Roundup
Issued by NWS

Home | Current Version | Previous Version | Graphics & Text | Print | Product List | Glossary On
Versions: 1 2 3 4 5 6 7 8 9 10 11 12 13 14 15 16 17 18 19 20 21 22 23 24 25 26 27 28 29 30 31 32 33 34 35 36 37 38 39 40 41 42 43 44 45 46 47 48 49 50
000
ASUS43 KIND 181959
RWRIN

WEATHER ROUNDUP FOR INDIANA
NATIONAL WEATHER SERVICE INDIANAPOLIS IN
300 PM EST THU JAN 18 2018

NOTE: "FAIR" INDICATES FEW OR NO CLOUDS BELOW 12,000 FEET WITH NO
SIGNIFICANT WEATHER AND/OR OBSTRUCTIONS TO VISIBILITY.

* - STATION DOES NOT REPORT WEATHER SUCH AS PRECIPITATION OR FOG.

+ - STATION NOT QUALITY CONTROLLED BY THE NATIONAL WEATHER SERVICE.
    USE DATA WITH CAUTION...ESPECIALLY DEWPOINT AND RELATIVE
    HUMIDITY OBSERVATIONS.

INZ001>003-010>013-019-020-182100-
NORTHWEST INDIANA

CITY           SKY/WX    TMP DP  RH WIND       PRES   REMARKS
GARY /AIRPORT/ MOSUNNY   32  14  47 SW14G31   30.06F WCI  22
KNOX *+        FAIR      28  18  64 SW9G18    30.10F WCI  20
MICHIGAN CITY+ FAIR      30  18  59 S16       30.05F WCI  19
MONTICELLO +   FAIR      28  14  55 SW16      30.13F WCI  16

$$

LMZ046-743>745-182100-
SOUTHERN LAKE MICHIGAN

STATION/POSITION TIME  TEMP    WIND        PRES    WAVE
                       AIR SEA DIR/SP/G            HT
                 (UTC) (F)     (DEG/KT/KT) (MB)    (FT)
BURNS HARBOR     1940   28     210/ 17/ 24 1018.3F
MICHIGAN CITY    1930   28     190/ 16/ 19   N/A

$$

INZ004-005-014>016-021>024-182100-
NORTH CENTRAL INDIANA

CITY           SKY/WX    TMP DP  RH WIND       PRES   REMARKS
ELKHART        FAIR      28  14  54 SW12G17   30.06F WCI  18
GOSHEN         FAIR      25  15  66 SW20G28   30.07F WCI  11
PERU/GRISSOM   FAIR      27  17  68 SW16      30.13F WCI  14
SOUTH BEND     FAIR      26  14  60 SW18G25   30.06F WCI  13

$$

INZ006>009-017-018-025>027-182100-
NORTHEAST INDIANA

CITY           SKY/WX    TMP DP  RH WIND       PRES   REMARKS
FORT WAYNE     FAIR      27  16  63 SW15      30.12F WCI  15
KENDALLVILLE + FAIR      27  16  62 SW10      30.07F WCI  18

$$

INZ028-029-035-036-043>045-051>053-182100-
WEST CENTRAL INDIANA

CITY           SKY/WX    TMP DP  RH WIND       PRES   REMARKS
GREENCASTLE +  FAIR      28  12  50 SW3       30.21S
LAFAYETTE      FAIR      28  16  60 SW10      30.15F WCI  19
TERRE HAUTE    FAIR      27  15  61 S12       30.24F WCI  17

$$

INZ030>032-037>040-046>048-054>057-064-065-182100-
CENTRAL INDIANA

CITY           SKY/WX    TMP DP  RH WIND       PRES   REMARKS
COLUMBUS       SUNNY     28  12  50 S14       30.24F WCI  17
GREENWOOD *+   FAIR      33  15  48 SW9G17    30.20F WCI  25
INDIANAPOLIS   FAIR      29  14  53 SW14      30.19F WCI  18
-EAGLE CREEK   FAIR      27  13  55 S12G21    30.18F WCI  17
MT COMFORT *+  FAIR      30  18  59 SW16      30.18F WCI  19
SHELBYVILLE    FAIR      30  16  56 S12       30.20F WCI  20

$$

INZ033-034-041-042-049-050-058-059-182100-
EAST CENTRAL INDIANA

CITY           SKY/WX    TMP DP  RH WIND       PRES   REMARKS
MUNCIE         FAIR      29  13  51 SW13G23   30.14S WCI  19
RICHMOND +     FAIR      28  16  59 SW17      30.17F WCI  16

$$

INZ060-061-067>069-081>083-085>088-182100-
SOUTHWEST INDIANA

CITY           SKY/WX    TMP DP  RH WIND       PRES   REMARKS
EVANSVILLE     FAIR      27  15  61 S13       30.34F WCI  16
HUNTINGBURG +  FAIR      30  16  56 S13       30.33F WCI  20

$$

INZ062-063-066-070>080-084-089>092-182100-
SOUTH CENTRAL AND SOUTHEAST INDIANA

CITY           SKY/WX    TMP DP  RH WIND       PRES   REMARKS
BLOOMINGTON    FAIR      30  12  47 SW10G20   30.24F WCI  21
FRENCH LICK *+ FAIR      30   9  40 SW9       30.29F WCI  22
MADISON *+     FAIR      30  16  55 S10       30.29F WCI  21
SEYMOUR +      FAIR      32  14  47 S13       30.27F WCI  22

$$




USA.gov is the U.S. government's official web portal to all federal, state and local government web resources and services.